Temperature
22 21 21 21 20 20 20 19 19 19 19 19 19 19 19 19 18 18 18 18 18 18 18 18 18 18 18 18 18 17 17 17 17 17 17 17 17 17 17 17 17 17 17
22 21 21 20 20 20 20 19 19 19 19 19 19 19 19 18 18 18 18 18 18 18 18 18 17 17 17 17 17 17 17 17 17 17 17 17 17 17 16 16 16 16 16
21 21 20 20 20 20 20 19 19 19 19 19 19 19 18 18 18 18 18 18 18 18 18 17 17 17 17 17 17 17 17 17 17 17 17 17 17 16 16 16 16 16 16
21 20 20 20 20 19 19 19 19 19 19 19 18 18 18 18 18 18 18 18 18 18 17 17 17 17 17 17 17 17 17 17 17 16 16 16 16 16 16 16 16 16 16
20 20 20 19 19 19 19 19 19 19 19 18 18 18 18 18 17 17 17 17 17 17 17 17 17 17 17 17 16 16 16 16 16 16 16 16 16 16 16 16 16 15 15
19 19 19 19 19 19 19 19 19 18 18 18 18 18 18 18 17 17 17 17 17 17 17 17 17 16 16 16 16 16 16 16 16 16 16 16 16 16 15 15 15 15 15
19 19 19 18 18 18 18 18 18 18 18 18 17 17 17 17 17 17 17 17 17 17 17 17 16 16 16 16 16 16 16 16 16 16 15 16 16 16 15 15 15 15 15
19 19 18 18 18 18 18 18 17 17 17 17 17 17 17 17 17 17 16 16 16 16 16 16 16 16 16 16 16 16 15 15 15 15 15 15 15 15 15 15 15 14 14
18 18 18 18 18 18 17 17 17 17 17 16 16 16 16 16 17 16 16 16 16 15 15 15 15 15 15 15 15 15 15 15 15 15 15 15 15 14 14 14 14 14 14
18 18 17 17 17 17 17 17 16 16 16 16 16 16 16 16 16 16 16 16 15 15 15 15 15 15 15 15 14 14 14 14 14 14 14 14 14 14 14 14 14 13 13
17 17 17 17 16 16 16 16 16 16 16 15 15 15 15 15 15 15 15 15 15 15 14 14 14 14 14 14 14 14 14 14 14 14 14 14 13 13 13 13 13 13 13
16 16 16 16 16 16 16 15 16 15 15 15 15 15 15 15 15 15 15 14 14 14 14 14 14 14 14 13 13 13 13 13 13 13 13 13 13 13 13 13 13 13 13
16 16 16 16 15 15 15 15 15 15 15 15 14 14 14 14 14 14 14 14 14 14 13 13 13 13 13 13 13 13 13 13 13 13 13 13 13 13 13 13 13 13 12
15 15 15 15 15 15 14 14 14 14 14 14 14 14 14 14 14 13 13 13 13 13 13 13 13 12 12 12 12 12 12 12 12 12 12 12 12 12 12 12 12 12 12
15 14 14 14 14 14 14 14 14 14 14 14 14 13 13 13 13 13 13 13 12 12 12 12 12 12 12 12 12 12 12 11 11 12 12 12 12 12 12 12 12 12 12
14 14 14 14 13 13 13 13 13 13 13 13 13 13 13 13 13 13 12 12 12 12 12 12 11 11 11 11 11 11 11 11 11 11 11 11 11 11 11 11 11 11 11
14 13 13 13 13 13 13 13 12 12 12 12 12 12 12 12 12 12 12 12 12 11 11 11 11 11 11 11 11 11 11 11 11 11 11 11 11 11 11 11 11 11 11
13 13 13 12 12 12 12 12 12 12 12 12 12 12 11 11 11 11 11 11 11 11 11 10 10 10 10 10 10 10 10 10 10 10 10 10 10 10 10 10 10 10 10
13 12 12 12 12 12 12 12 12 11 11 11 11 11 11 11 11 11 11 11 10 10 10 10 10 10 10 10 10 10 10 10 10 10 10 10 10 10 10 10 10 10 10
12 12 12 12 12 11 11 11 11 11 11 11 11 11 10 10 10 10 10 10 10 10 10 10 9 9 9 9 9 9 9 9 9 9 9 9 9 9 9 9 9 9 9
12 11 11 11 11 11 11 11 11 11 10 10 10 10 10 10 10 10 10 9 9 9 9 9 9 9 9 9 9 9 9 9 9 9 9 9 9 9 9 9 9 9 9
11 11 11 11 11 11 11 11 10 10 10 10 10 10 10 9 9 9 9 9 9 9 9 9 9 9 9 9 9 9 8 8 8 8 8 8 8 8 8 8 8 8 8
11 11 11 10 10 10 10 10 10 10 10 9 9 9 9 9 9 9 9 9 8 8 8 8 8 8 8 8 8 8 8 8 8 8 8 8 8 8 8 8 8 8 8
11 10 10 10 10 10 10 10 10 9 9 9 9 9 9 8 8 8 8 8 8 8 8 8 8 8 8 8 8 8 8 7 7 7 7 7 7 7 7 7 7 7 7
10 10 10 10 10 10 10 9 9 9 9 9 9 8 8 8 8 8 8 8 8 8 8 8 7 7 7 7 7 7 7 7 7 7 7 7 7 7 7 7 6 6 6
10 10 10 10 9 9 9 9 9 9 8 8 8 8 8 8 8 8 8 7 7 7 7 7 7 7 7 7 7 7 7 7 7 7 7 6 6 6 6 6 6 6 6
Wind_Speed
10 9 9 8 7 6 5 6 6 5 6 6 7 7 7 6 6 5 5 5 5 5 4 5 5 4 3 3 2 2 3 4 5 4 2 2 2 2 2 4 5 6 6
9 8 8 7 7 7 7 6 6 6 6 6 6 6 7 7 6 6 7 6 6 6 6 5 5 4 4 4 3 3 4 4 4 5 2 1 3 3 3 2 3 4 5
8 8 8 7 7 8 7 6 5 5 5 5 5 6 6 6 7 6 6 6 7 7 7 6 6 5 5 4 4 4 4 4 3 4 3 2 2 2 2 1 2 2 3
8 8 8 8 7 7 6 6 5 5 5 4 4 5 5 5 5 6 5 6 6 6 6 6 6 7 6 6 5 4 4 3 3 3 3 2 2 2 2 2 2 2 3
6 7 7 6 6 6 6 6 5 5 5 4 3 3 3 4 5 5 5 5 5 5 4 5 6 6 7 6 5 5 4 4 3 3 3 2 2 2 3 3 3 3 3
6 6 6 6 6 6 6 6 5 4 4 3 3 3 3 4 4 6 6 5 4 5 4 4 4 4 5 6 6 6 6 6 5 4 4 4 5 4 4 4 3 2 3
5 5 5 5 5 5 6 4 4 4 3 3 3 3 4 4 5 5 7 5 4 4 5 4 3 3 3 3 4 4 5 6 8 7 6 7 6 6 5 5 4 4 5
5 5 5 5 5 5 5 5 4 3 3 3 3 3 4 4 5 6 6 5 3 4 4 5 4 3 3 3 3 2 3 4 5 5 6 6 6 6 6 6 6 4 3
4 4 4 5 5 4 5 4 3 3 3 3 3 3 3 3 4 5 5 4 3 4 4 4 4 4 4 4 3 3 2 3 4 3 4 5 6 6 5 3 3 2 3
4 4 4 4 4 4 4 4 3 3 3 3 3 3 3 3 3 5 6 3 3 3 2 2 4 4 4 4 4 4 4 5 3 3 3 3 3 4 6 6 6 5 3
3 3 3 4 4 4 4 3 3 3 2 2 2 2 2 3 3 4 5 4 4 3 2 2 2 3 4 4 5 5 6 5 3 3 3 3 2 2 3 4 5 6 5
3 3 2 2 3 3 3 2 2 2 2 2 1 1 1 1 1 2 4 5 4 3 3 2 2 3 4 4 4 5 5 3 2 2 2 3 3 4 4 4 5 5 6
4 3 2 1 1 2 3 2 2 1 1 1 1 1 1 1 1 1 1 3 3 2 2 2 2 2 2 2 4 4 3 2 2 2 3 4 4 4 3 2 2 2 3
4 3 2 2 1 1 1 2 2 2 2 2 2 3 2 1 0 0 0 1 2 1 1 1 2 2 2 2 2 2 3 3 3 4 4 3 2 2 2 2 2 2 2
3 3 2 2 2 1 1 0 1 2 3 4 3 3 2 2 3 3 2 1 2 2 1 0 1 1 1 2 2 2 2 2 3 3 3 3 2 2 2 2 2 2 2
3 2 1 1 1 1 1 2 4 1 2 0 1 2 1 2 1 2 2 2 3 3 2 1 2 2 3 3 3 3 2 3 3 3 3 3 3 3 3 2 2 2 3
3 3 2 2 1 1 2 1 0 3 4 3 2 1 1 1 1 1 1 2 2 3 2 2 2 3 3 3 3 3 3 4 3 3 3 3 3 3 3 3 3 2 3
3 3 3 2 2 1 2 2 2 2 0 2 3 2 1 1 1 1 2 3 2 1 1 2 3 3 3 2 2 3 3 3 2 2 3 3 3 3 3 3 3 4 3
2 2 2 2 2 1 1 1 1 1 1 0 1 2 1 1 2 2 2 1 1 1 1 2 2 2 3 2 2 2 2 2 2 2 3 3 2 2 3 3 3 4 3
2 2 2 2 2 2 1 1 1 1 1 1 1 1 0 1 1 1 1 0 1 2 2 2 2 2 2 2 2 2 2 2 2 2 3 2 2 2 2 3 3 3 3
1 1 1 1 2 2 2 2 2 2 2 2 2 1 2 2 1 1 1 1 2 2 2 2 2 2 2 2 2 2 2 2 2 2 2 2 2 2 2 2 3 3 2
2 1 1 1 2 2 2 2 2 2 2 2 1 1 2 1 1 1 2 2 2 2 2 2 2 1 2 2 1 1 1 2 2 2 1 1 1 2 2 2 2 2 2
1 2 1 1 1 2 1 1 2 2 2 2 1 1 1 1 2 2 2 2 2 2 1 1 1 1 1 0 1 1 2 2 2 2 2 1 1 1 1 2 2 2 2
1 2 2 2 1 2 2 1 1 1 2 2 1 1 2 2 2 2 2 1 1 1 1 1 1 1 2 1 1 1 2 2 2 2 2 2 2 2 2 2 2 2 3
1 1 2 2 2 2 2 1 1 2 2 2 2 2 2 2 2 1 1 1 1 0 0 0 0 1 1 1 1 1 1 1 1 1 1 2 2 2 2 2 2 2 2
1 1 1 2 2 2 2 2 2 1 1 1 1 1 2 2 2 2 1 1 1 1 1 0 1 1 1 0 1 1 1 1 1 1 1 1 1 2 2 2 2 2 3
Wind_Direction
189 187 187 184 185 184 188 200 200 196 194 199 202 199 199 200 197 194 206 203 207 220 224 218 228 220 218 223 212 203 206 197 223 253 236 221 195 200 194 201 206 202 210
191 187 190 183 180 190 201 204 204 204 204 204 201 195 198 200 200 199 206 207 208 218 225 224 235 228 221 226 215 220 221 211 206 234 245 226 214 202 198 201 203 204 204
186 188 189 189 190 195 200 199 198 200 205 206 201 200 204 205 203 207 208 209 210 215 215 217 224 213 221 222 220 226 227 226 209 209 237 225 222 196 174 200 212 221 208
181 184 190 191 192 190 192 193 193 190 194 204 206 208 211 210 206 210 213 214 215 217 216 215 214 211 216 217 222 226 222 215 209 210 231 228 222 210 166 194 230 239 229
176 183 189 184 180 178 182 193 190 187 192 194 199 208 211 212 219 214 220 220 215 220 220 218 219 214 210 212 219 217 210 210 209 212 225 222 217 192 211 209 213 226 242
168 179 175 175 179 183 190 192 188 193 188 174 187 202 208 224 221 212 211 215 207 208 217 227 228 220 218 217 219 214 205 204 208 211 219 219 224 215 210 203 199 202 249
160 164 164 169 175 182 188 189 193 194 181 177 195 206 222 228 211 204 209 204 204 207 213 219 224 226 210 226 228 226 229 223 210 205 214 224 222 215 200 207 211 211 226
145 149 156 156 166 176 180 194 195 181 177 201 212 230 234 231 208 200 202 202 209 219 215 206 202 208 209 194 201 220 244 248 234 223 222 230 227 215 201 207 212 221 242
139 155 162 160 164 170 174 182 181 172 192 205 187 195 216 235 207 199 200 197 212 228 224 210 196 203 210 183 178 205 248 269 260 241 234 233 225 214 196 178 188 192 243
159 163 154 157 165 171 174 171 171 166 184 187 177 186 199 227 226 211 201 193 206 222 228 210 195 192 197 180 187 201 233 257 267 269 263 264 247 235 213 201 200 206 224
157 138 139 151 162 164 159 157 161 169 175 189 195 211 212 229 238 214 199 197 202 209 222 234 231 203 202 204 203 214 232 240 243 238 241 248 250 243 238 225 210 204 212
129 130 134 145 157 150 146 159 168 171 173 186 195 255 286 278 269 215 197 201 193 197 223 237 248 235 230 231 228 231 241 236 221 222 235 241 244 247 247 239 225 217 217
126 130 134 126 133 153 160 165 172 174 178 191 194 220 266 314 356 24 159 182 178 191 218 217 238 248 252 248 237 238 230 213 210 223 235 242 242 243 242 246 243 236 245
143 148 145 130 110 88 127 160 175 184 187 196 203 222 239 254 289 345 12 126 128 161 208 272 284 272 264 260 269 246 221 211 210 228 242 250 251 242 233 219 223 222 233
149 149 151 152 152 118 59 325 219 230 216 206 212 206 203 237 244 209 183 182 180 185 155 2 337 319 299 293 283 256 235 224 226 237 238 243 239 231 238 228 213 205 214
142 149 157 155 153 149 130 25 16 4 2 24 195 194 236 227 224 188 193 200 190 168 145 197 249 253 250 249 250 255 245 237 236 230 227 224 226 227 235 237 216 205 219
157 165 162 162 172 180 173 163 329 9 29 34 35 57 157 214 207 155 153 152 162 149 152 224 244 253 255 246 238 239 246 246 240 232 230 228 226 228 226 226 222 222 227
159 160 155 164 182 209 206 191 182 177 22 5 9 16 58 70 57 76 119 103 82 106 199 224 242 250 243 238 242 249 249 247 240 239 245 244 230 225 232 234 228 223 225
144 153 157 160 173 195 201 176 159 169 168 185 6 9 16 51 52 47 90 108 172 227 244 245 249 252 253 248 238 241 242 237 236 233 242 246 238 230 237 241 239 233 228
155 188 189 169 175 176 175 163 168 175 181 193 198 222 351 71 54 11 34 191 221 244 251 258 264 263 261 256 247 241 236 236 230 229 238 239 233 219 231 242 236 228 232
181 209 211 157 174 177 178 185 192 184 188 204 226 224 176 171 197 230 249 245 239 247 252 258 266 266 264 261 251 234 220 233 238 232 232 238 236 232 229 226 232 231 230
168 189 194 187 197 192 188 183 180 180 183 192 235 268 220 206 226 258 270 269 260 251 246 243 259 270 266 263 223 203 208 224 237 237 234 242 244 241 235 228 224 224 220
158 156 142 153 170 156 157 168 176 185 190 195 199 217 241 245 245 249 256 266 270 268 253 229 233 264 282 287 165 176 188 217 233 225 215 223 230 233 232 231 232 233 233
138 145 151 158 147 144 150 155 171 186 192 201 208 226 234 236 245 252 254 266 281 289 282 237 221 248 278 295 207 182 186 209 219 220 215 215 221 227 230 236 246 248 245
127 142 158 167 162 164 168 174 185 194 198 210 215 225 234 230 239 245 246 236 246 248 297 241 177 214 246 248 229 225 230 223 227 237 231 225 223 218 215 223 229 238 244
137 146 152 162 170 174 178 182 187 195 205 211 214 213 215 221 231 237 237 225 223 250 261 239 168 144 137 190 270 293 311 326 322 285 205 212 226 235 230 236 235 228 234
Height
1493 1496 1498 1500 1503 1505 1507 1509 1511 1512 1512 1513 1514 1515 1515 1516 1517 1518 1519 1519 1520 1520 1520 1521 1521 1521 1521 1522 1522 1523 1523 1523 1523 1522 1523 1523 1523 1523 1523 1523 1523 1523 1523
1490 1492 1495 1497 1499 1501 1503 1505 1507 1508 1509 1510 1511 1511 1512 1513 1513 1514 1514 1515 1515 1516 1516 1517 1517 1517 1517 1518 1518 1519 1519 1519 1519 1519 1519 1520 1520 1520 1520 1521 1520 1520 1520
1487 1489 1492 1494 1496 1497 1499 1500 1502 1504 1505 1506 1507 1507 1508 1508 1508 1510 1510 1510 1511 1511 1512 1512 1513 1513 1513 1514 1514 1515 1515 1516 1516 1516 1515 1516 1516 1517 1517 1517 1517 1517 1517
1484 1486 1488 1490 1492 1494 1495 1497 1498 1499 1501 1502 1503 1504 1504 1504 1504 1505 1506 1506 1506 1507 1507 1508 1508 1508 1509 1510 1510 1510 1511 1512 1512 1512 1512 1512 1513 1513 1514 1513 1513 1514 1514
1481 1483 1484 1487 1489 1490 1492 1493 1493 1494 1496 1498 1499 1500 1500 1500 1500 1501 1502 1502 1502 1502 1502 1503 1504 1504 1504 1505 1506 1506 1507 1507 1507 1508 1508 1508 1509 1509 1509 1509 1509 1509 1510
1478 1479 1481 1483 1485 1487 1488 1488 1489 1491 1492 1493 1493 1494 1495 1495 1496 1497 1498 1498 1498 1498 1498 1499 1499 1499 1500 1501 1502 1503 1503 1503 1503 1503 1504 1504 1504 1505 1506 1506 1506 1506 1505
1476 1477 1478 1480 1482 1483 1484 1485 1486 1486 1487 1489 1490 1490 1490 1491 1491 1492 1493 1493 1493 1493 1494 1494 1494 1495 1495 1496 1497 1498 1498 1498 1499 1499 1499 1499 1500 1501 1502 1502 1502 1501 1501
1473 1474 1475 1476 1477 1479 1480 1481 1482 1482 1483 1485 1485 1485 1485 1485 1486 1486 1487 1488 1488 1489 1489 1489 1490 1490 1491 1491 1492 1492 1493 1493 1494 1494 1495 1495 1496 1497 1497 1498 1498 1498 1497
1470 1472 1473 1473 1474 1476 1476 1477 1479 1479 1480 1481 1481 1480 1480 1481 1481 1482 1483 1483 1483 1483 1484 1484 1485 1485 1486 1487 1487 1487 1488 1488 1489 1490 1490 1491 1491 1492 1492 1493 1493 1493 1492
1468 1469 1470 1471 1472 1473 1473 1475 1476 1476 1476 1477 1476 1477 1477 1477 1477 1477 1478 1478 1478 1478 1479 1479 1480 1481 1481 1482 1482 1482 1483 1483 1484 1484 1485 1486 1487 1487 1488 1488 1488 1488 1488
1467 1467 1468 1468 1469 1470 1471 1472 1473 1473 1473 1473 1473 1473 1473 1473 1473 1473 1473 1473 1474 1474 1474 1475 1475 1476 1476 1477 1477 1478 1478 1479 1479 1480 1480 1481 1481 1482 1483 1483 1483 1483 1483
1465 1465 1465 1466 1466 1467 1468 1469 1470 1470 1469 1469 1469 1469 1469 1469 1469 1468 1469 1470 1470 1471 1471 1471 1471 1472 1472 1472 1472 1472 1473 1474 1475 1475 1475 1475 1476 1477 1478 1478 1478 1478 1479
1463 1463 1463 1463 1464 1465 1465 1465 1466 1467 1466 1466 1466 1466 1466 1466 1466 1465 1465 1466 1466 1467 1468 1468 1468 1468 1469 1469 1468 1468 1469 1470 1470 1470 1470 1471 1472 1473 1473 1473 1473 1474 1474
1459 1460 1460 1461 1461 1462 1463 1463 1463 1463 1463 1463 1463 1463 1463 1463 1463 1463 1463 1463 1463 1464 1464 1464 1465 1465 1465 1465 1465 1465 1465 1466 1466 1466 1466 1467 1467 1468 1468 1468 1468 1469 1469
1456 1457 1458 1459 1459 1459 1460 1460 1460 1460 1460 1460 1460 1460 1460 1459 1459 1460 1460 1459 1460 1460 1460 1461 1461 1461 1461 1460 1461 1461 1461 1461 1461 1461 1462 1462 1463 1463 1464 1464 1464 1464 1465
1454 1455 1456 1456 1456 1457 1457 1457 1458 1458 1458 1458 1458 1458 1457 1457 1457 1457 1457 1457 1457 1457 1457 1457 1457 1457 1456 1456 1456 1456 1456 1457 1457 1457 1457 1457 1458 1459 1459 1459 1460 1460 1460
1452 1452 1453 1454 1454 1454 1454 1454 1455 1455 1455 1455 1455 1455 1455 1455 1454 1454 1454 1454 1454 1454 1454 1453 1453 1453 1452 1452 1452 1452 1452 1452 1453 1453 1453 1453 1454 1454 1455 1455 1455 1456 1456
1450 1450 1450 1451 1452 1453 1453 1453 1453 1452 1452 1452 1453 1453 1452 1452 1452 1451 1451 1451 1450 1450 1450 1450 1450 1449 1448 1448 1447 1447 1447 1448 1448 1448 1448 1448 1449 1449 1449 1450 1450 1450 1451
1447 1448 1448 1449 1450 1451 1451 1451 1451 1451 1451 1450 1450 1450 1450 1450 1449 1449 1448 1448 1447 1447 1446 1446 1446 1445 1444 1444 1443 1443 1442 1443 1443 1443 1443 1443 1444 1444 1444 1445 1445 1446 1446
1446 1447 1447 1447 1448 1448 1449 1449 1449 1449 1449 1448 1448 1448 1448 1447 1447 1446 1446 1445 1445 1444 1443 1443 1442 1441 1441 1440 1439 1439 1438 1438 1438 1439 1439 1439 1439 1439 1440 1440 1441 1441 1442
1445 1445 1446 1446 1446 1446 1447 1447 1447 1447 1447 1446 1446 1446 1446 1445 1445 1444 1444 1443 1442 1441 1440 1440 1439 1438 1437 1436 1435 1433 1433 1433 1434 1434 1434 1435 1435 1435 1436 1436 1436 1437 1437
1443 1443 1444 1444 1444 1445 1445 1445 1445 1445 1444 1444 1444 1444 1444 1444 1443 1442 1441 1440 1440 1439 1438 1437 1436 1435 1434 1432 1430 1430 1429 1429 1430 1430 1431 1431 1431 1432 1432 1432 1432 1433 1433
1441 1442 1442 1442 1443 1443 1443 1443 1442 1442 1442 1442 1442 1441 1441 1441 1440 1440 1439 1438 1437 1436 1435 1434 1433 1432 1430 1429 1428 1428 1427 1427 1427 1427 1427 1427 1428 1428 1428 1428 1428 1428 1428
1440 1440 1440 1441 1441 1441 1440 1440 1440 1440 1440 1439 1439 1439 1439 1439 1438 1437 1436 1435 1434 1433 1432 1431 1430 1429 1427 1426 1426 1425 1425 1425 1425 1424 1424 1424 1424 1424 1424 1424 1424 1424 1424
1439 1439 1439 1439 1439 1438 1438 1438 1438 1438 1438 1437 1437 1437 1436 1436 1435 1435 1434 1433 1431 1430 1429 1428 1427 1426 1425 1424 1423 1422 1422 1421 1421 1421 1421 1420 1420 1420 1420 1420 1420 1420 1420
1438 1437 1437 1437 1437 1437 1437 1437 1436 1436 1436 1436 1435 1435 1434 1434 1433 1432 1431 1430 1429 1428 1426 1425 1424 1423 1422 1421 1420 1419 1418 1418 1417 1417 1417 1416 1416 1416 1416 1416 1416 1416 1417